Weather History for KAJZ - September, 2014

Change the Weather History Date:

Monday, September 1, 2014

  Actual Average (KMTJ) Record (KMTJ)
Temperature  
Mean Temperature 72 °F 67 °F  
Max Temperature 89 °F 82 °F 91 °F (1996)
Min Temperature 54 °F 52 °F 45 °F (2005)
Degree Days  
Heating Degree Days 0 1  
Month to date heating degree days 1  
Since 1 July heating degree days 6  
Cooling Degree Days 6 3  
Month to date cooling degree days 3  
Year to date cooling degree days 608  
Growing Degree Days 22 (Base 50)    
Moisture  
Dew Point 35 °F    
Average Humidity 31    
Maximum Humidity 54    
Minimum Humidity 12    
Precipitation  
Precipitation 0.00 in 0.03 in 0.17 in (2013)
Month to date precipitation 0.03  
Year to date precipitation 7.36  
Sea Level Pressure  
Sea Level Pressure 30.07 in    
Wind  
Wind Speed 7 mph (NNE)    
Max Wind Speed 16 mph    
Max Gust Speed 23 mph    
Visibility 7 miles    
Events      
T = Trace of Precipitation, MM = Missing Value Source: NWS Daily Summary

Daily Weather History Graph

Daily Weather History Graph

Search for Another Location

Airport or City:

Trip Planner

Search our weather history database for the weather conditions in past years. The results will help you decide how hot, cold, wet, or windy it might be!

Date:

Astronomy

Sep. 01, 2014 Rise Set
Actual Time 6:41 AM MDT 7:42 PM MDT
Civil Twilight 6:14 AM MDT 8:09 PM MDT
Nautical Twilight 5:41 AM MDT 8:41 PM MDT
Astronomical Twilight 5:07 AM MDT 9:15 PM MDT
Moon 1:26 PM MDT (9/1) 11:50 PM MDT (9/1)
Length of Visible Light 13h 55m
Length of Day
13h 01m
Waxing Crescent, 43% of the Moon is Illuminated
Sep 1
Waxing Crescent
Sep 2
First Quarter
Sep 8
Full
Sep 15
Last Quarter
Sep 24
New

Hourly Weather History & Observations

Time (MDT) Temp. Dew Point Humidity Pressure Visibility Wind Dir Wind Speed Gust Speed Precip Events Conditions
12:35 AM 72.0 °F 32.2 °F 23% 30.00 in 7.0 mi West 16.1 mph 23.0 mph N/A   Clear
1:15 AM 69.8 °F 33.3 °F 26% 30.02 in 7.0 mi WSW 12.7 mph - N/A   Clear
1:35 AM 68.5 °F 34.0 °F 28% 30.03 in 7.0 mi NNW 5.8 mph - N/A   Clear
1:55 AM 63.9 °F 37.4 °F 38% 30.04 in 7.0 mi NNW 3.5 mph - N/A   Clear
2:15 AM 63.0 °F 38.5 °F 40% 30.04 in 7.0 mi Calm Calm - N/A   Clear
2:35 AM 64.4 °F 35.6 °F 34% 30.06 in 7.0 mi Calm Calm - N/A   Clear
2:55 AM 62.4 °F 37.9 °F 40% 30.06 in 5.0 mi Calm Calm - N/A   Haze
3:15 AM 59.9 °F 39.4 °F 47% 30.06 in 7.0 mi North 6.9 mph - N/A   Clear
3:35 AM 57.4 °F 38.8 °F 50% 30.07 in 5.0 mi NE 5.8 mph - N/A   Haze
4:15 AM 56.8 °F 38.5 °F 50% 30.07 in 5.0 mi NNE 5.8 mph - N/A   Haze
4:35 AM 55.6 °F 38.8 °F 53% 30.07 in 7.0 mi NE 4.6 mph - N/A   Clear
4:55 AM 55.8 °F 38.3 °F 52% 30.07 in 7.0 mi ENE 6.9 mph - N/A   Clear
5:15 AM 56.8 °F 37.8 °F 49% 30.07 in 7.0 mi ENE 6.9 mph - N/A   Clear
5:35 AM 56.1 °F 37.6 °F 50% 30.08 in 5.0 mi NE 5.8 mph - N/A   Haze
5:55 AM 54.7 °F 37.4 °F 52% 30.09 in 7.0 mi ENE 5.8 mph - N/A   Clear
6:15 AM 55.8 °F 37.4 °F 50% 30.09 in 5.0 mi East 8.1 mph - N/A   Haze
6:35 AM 54.5 °F 37.6 °F 53% 30.09 in 7.0 mi ENE 8.1 mph - N/A   Clear
6:55 AM 54.5 °F 37.8 °F 53% 30.10 in 5.0 mi East 5.8 mph - N/A   Haze
7:15 AM 55.2 °F 38.7 °F 54% 30.10 in 7.0 mi East 6.9 mph - N/A   Clear
7:35 AM 57.4 °F 38.7 °F 50% 30.11 in 7.0 mi ENE 8.1 mph - N/A   Clear
7:55 AM 58.8 °F 39.4 °F 49% 30.11 in 10.0 mi East 5.8 mph - N/A   Clear
8:15 AM 59.9 °F 39.2 °F 46% 30.11 in 7.0 mi ENE 4.6 mph - N/A   Clear
8:35 AM 62.8 °F 38.3 °F 40% 30.12 in 7.0 mi East 5.8 mph - N/A   Clear
8:55 AM 63.9 °F 38.5 °F 39% 30.12 in 7.0 mi East 6.9 mph - N/A   Clear
9:15 AM 65.7 °F 39.2 °F 38% 30.12 in 7.0 mi East 8.1 mph - N/A   Clear
9:35 AM 68.0 °F 39.2 °F 35% 30.12 in 10.0 mi SE 6.9 mph - N/A   Clear
10:15 AM 69.3 °F 40.3 °F 35% 30.12 in 7.0 mi Calm Calm - N/A   Clear
10:35 AM 70.7 °F 39.9 °F 33% 30.12 in 7.0 mi ESE 5.8 mph - N/A   Clear
10:55 AM 72.7 °F 40.6 °F 31% 30.11 in 7.0 mi South 4.6 mph - N/A   Clear
11:35 AM 76.1 °F 34.7 °F 22% 30.10 in 10.0 mi Calm Calm - N/A   Clear
11:55 AM 77.4 °F 34.5 °F 21% 30.09 in 10.0 mi Calm Calm - N/A   Clear
12:15 PM 78.8 °F 34.9 °F 20% 30.09 in 7.0 mi Calm Calm - N/A   Clear
12:35 PM 80.2 °F 34.5 °F 19% 30.08 in 7.0 mi SSE 6.9 mph - N/A   Clear
1:15 PM 82.2 °F 33.6 °F 17% 30.07 in 5.0 mi SSW 5.8 mph - N/A   Haze
1:35 PM 83.1 °F 33.6 °F 17% 30.07 in 7.0 mi Calm Calm - N/A   Clear
2:15 PM 84.4 °F 34.0 °F 16% 30.05 in 7.0 mi SSW 4.6 mph - N/A   Clear
2:35 PM 86.7 °F 33.3 °F 15% 30.05 in 7.0 mi SW 3.5 mph - N/A   Clear
2:55 PM 87.6 °F 31.8 °F 14% 30.04 in 7.0 mi South 6.9 mph - N/A   Clear
4:15 PM 89.1 °F 29.3 °F 12% 30.02 in 7.0 mi West 9.2 mph 19.6 mph N/A   Clear
4:35 PM 89.2 °F 29.3 °F 12% 30.02 in 7.0 mi WSW 10.4 mph 20.7 mph N/A   Clear
4:55 PM 89.1 °F 28.9 °F 12% 30.02 in 7.0 mi West 13.8 mph 21.9 mph N/A   Clear
5:15 PM 88.5 °F 29.3 °F 12% 30.02 in 7.0 mi WNW 9.2 mph 17.3 mph N/A   Clear
5:35 PM 88.0 °F 29.3 °F 12% 30.02 in 7.0 mi NW 13.8 mph 18.4 mph N/A   Clear
5:55 PM 87.1 °F 29.3 °F 12% 30.02 in 7.0 mi NW 13.8 mph 20.7 mph N/A   Clear
6:15 PM 86.9 °F 29.7 °F 13% 30.03 in 7.0 mi WNW 12.7 mph - N/A   Clear
6:35 PM 86.2 °F 29.5 °F 13% 30.03 in 5.0 mi WNW 13.8 mph 18.4 mph N/A   Haze
6:55 PM 85.1 °F 29.7 °F 13% 30.04 in 7.0 mi WNW 11.5 mph 20.7 mph N/A   Clear
7:15 PM 84.2 °F 29.3 °F 14% 30.04 in 7.0 mi WNW 6.9 mph - N/A   Clear
7:35 PM 82.6 °F 29.3 °F 14% 30.04 in 7.0 mi WNW 5.8 mph - N/A   Clear
8:15 PM 75.7 °F 34.3 °F 22% 30.06 in 7.0 mi NNW 4.6 mph - N/A   Clear
8:35 PM 74.1 °F 35.2 °F 24% 30.06 in 7.0 mi North 4.6 mph - N/A   Clear
8:55 PM 71.8 °F 34.9 °F 26% 30.07 in 7.0 mi Calm Calm - N/A   Clear
9:15 PM 71.2 °F 34.5 °F 26% 30.08 in 7.0 mi ENE 3.5 mph - N/A   Clear
9:55 PM 67.3 °F 37.4 °F 33% 30.09 in 7.0 mi SW 5.8 mph - N/A   Clear
10:15 PM 65.3 °F 39.2 °F 38% 30.09 in 7.0 mi Calm Calm - N/A   Clear
10:55 PM 67.1 °F 35.6 °F 31% 30.11 in 5.0 mi ENE 5.8 mph - N/A   Haze
11:35 PM 63.9 °F 36.5 °F 36% 30.12 in 5.0 mi NE 5.8 mph - N/A   Haze
11:55 PM 62.1 °F 38.5 °F 42% 30.12 in 7.0 mi NE 6.9 mph - N/A   Clear